Location: San Pelegr�n
(42.1868°N, 0.0079°E)
Time: 05:24:35
(UTC+00:00)

Cosmos 2219 - Pass Details

Date: 24 January 2020
Orbit: 833 x 860 km, 71.1° (Epoch: 19 February)

Event Time Altitude Azimuth Distance (km) Brightness Sun altitude
Rises 17:26:52 0° 201° (SSW) 3,364 7.0 -4.8°
Reaches altitude 10° 17:29:17 10° 200° (SSW) 2,435 6.3 -5.2°
Maximum altitude 17:34:52 86° 112° (ESE) 843 3.2 -6.2°
Drops below altitude 10° 17:40:32 10° 25° (NNE) 2,462 5.2 -7.2°
Sets 17:42:59 0° 25° (NNE) 3,404 5.9 -7.6°
